Location: Lac de la Montange Noire
(46.1952°N, 74.2701°W)
Time: 05:49:28
(UTC-04:00)

Iridium 42 - Visible Passes

Search period start: 01 August 2014 00:00
Search period end: 11 August 2014 00:00
Orbit: 776 x 779 km, 86.4° (Epoch: 31 July)

Date Brightness Start Highest point End Pass type
(mag) Time Alt. Az. Time Alt. Az. Time Alt. Az.
01 Aug 6.7 21:34:57 10° NNE 21:39:17 26° ENE 21:42:23 15° ESE visible
01 Aug 6.5 23:15:16 10° NNW 23:20:11 43° W 23:22:52 24° SW visible
02 Aug 7.3 21:02:24 10° NE 21:05:23 15° ENE 21:08:21 10° ESE visible
02 Aug 5.6 22:41:32 10° N 22:46:45 76° W 22:49:32 28° S visible
03 Aug 5.6 22:08:01 10° N 22:13:12 62° E 22:16:14 25° SSE visible
03 Aug 7.8 23:49:57 10° NW 23:53:23 18° WNW 23:56:43 10° WSW visible
04 Aug 6.3 21:34:44 10° NNE 21:39:31 35° E 21:42:56 17° SE visible
04 Aug 7.0 23:15:37 10° NNW 23:20:09 31° W 23:23:25 16° SW visible
05 Aug 7.0 21:01:48 10° NNE 21:05:43 21° ENE 21:09:36 10° ESE visible
05 Aug 6.1 22:41:43 10° NNW 22:46:48 54° W 22:50:08 21° SSW visible
06 Aug 5.5 22:08:04 10° N 22:13:19 87° E 22:16:51 21° S visible
06 Aug 8.1 23:51:01 10° NW 23:53:14 13° WNW 23:55:26 10° W visible
07 Aug 5.8 21:34:38 10° N 21:39:43 49° E 21:43:36 17° SSE visible
07 Aug 7.6 23:16:07 10° NNW 23:20:04 22° W 23:24:01 10° SW visible
08 Aug 6.5 21:01:29 10° NNE 21:05:59 29° ENE 21:10:21 11° SE visible
08 Aug 6.7 22:41:59 10° NNW 22:46:47 38° W 22:50:50 14° SSW visible
09 Aug 5.8 22:08:12 10° N 22:13:23 68° W 22:17:37 15° S visible
10 Aug 5.5 21:34:38 10° N 21:39:51 70° E 21:44:25 14° SSE visible
10 Aug 8.0 23:16:51 10° NW 23:19:56 16° WNW 23:23:02 10° WSW visible
